Stations météo

réclame
Mon MeteoGroup
Kleine Brogel, Belgique (6479): Température de l'air & dewpoint: 11.10.2018 07:00:00 - 17.10.2018 07:00:00 (CEST)Kleine Brogel, Belgique (6479): Vitesse du vent & gusts: 11.10.2018 07:00:00 - 17.10.2018 07:00:00 (CEST)Kleine Brogel, Belgique (6479): Direction du vent: 11.10.2018 07:00:00 - 17.10.2018 07:00:00 (CEST)Kleine Brogel, Belgique (6479): reduced air pressure: 11.10.2018 07:00:00 - 17.10.2018 07:00:00 (CEST)Kleine Brogel, Belgique (6479): visibility: 11.10.2018 07:00:00 - 17.10.2018 07:00:00 (CEST)
Date & Time tt [°C] td [°C] ff [km/h] ff [knt] fx [km/h] fx [knt] dd ppp [hPa] vv [km]
17.10.2018 07:00:00 10,6 8,6 4 2 4 2 N 1019,1 17
17.10.2018 06:00:00 10,9 8,4 4 2 4 2 N 1019,1 17
17.10.2018 05:00:00 12,8 8,7 4 2 - - N 1018,6 19
17.10.2018 04:00:00 13,1 8,8 4 2 7 4 N 1018,6 19
17.10.2018 03:00:00 15,1 8,9 4 2 7 4 N 1018,5 20
17.10.2018 02:00:00 14,6 9,1 4 2 - - N 1018,7 20
17.10.2018 01:00:00 15,0 8,9 4 2 11 6 N 1018,7 20
17.10.2018 00:00:00 15,3 9,3 4 2 7 4 N 1019,0 20
16.10.2018 23:00:00 14,8 9,2 4 2 - - N 1019,1 20
16.10.2018 22:00:00 14,1 10,5 4 2 7 4 N 1019,2 20
16.10.2018 21:00:00 16,0 11,5 4 2 4 2 N 1019,0 20
16.10.2018 20:00:00 15,1 11,8 4 2 - - N 1018,8 20
16.10.2018 19:00:00 17,6 12,6 4 2 0 0 N 1018,5 20
16.10.2018 18:00:00 21,0 12,3 4 2 7 4 N 1018,2 20
16.10.2018 17:00:00 23,1 10,5 4 2 - - N 1018,2 20
16.10.2018 16:00:00 24,0 10,0 4 2 11 6 N 1018,3 20
16.10.2018 15:00:00 24,0 10,3 7 4 11 6 E 1018,3 20
16.10.2018 14:00:00 24,2 8,5 7 4 - - E 1018,6 20
16.10.2018 13:00:00 24,5 8,2 4 2 14 8 N 1018,7 20
16.10.2018 12:00:00 23,3 9,9 4 2 11 6 N 1018,7 20
16.10.2018 11:00:00 20,5 11,0 4 2 - - N 1018,7 20
16.10.2018 10:00:00 16,8 9,9 4 2 7 4 N 1018,7 17
16.10.2018 09:00:00 12,1 8,9 0 0 4 2 N 1018,6 17
16.10.2018 08:00:00 9,3 7,9 4 2 - - N 1018,2 17
16.10.2018 07:00:00 9,0 8,0 4 2 7 4 N 1018,3 14
16.10.2018 06:00:00 9,5 7,8 4 2 0 0 N 1017,7 19
16.10.2018 05:00:00 10,0 8,3 4 2 - - N 1017,5 11
16.10.2018 04:00:00 9,3 8,0 4 2 0 0 N 1017,2 10
16.10.2018 03:00:00 9,6 8,2 4 2 0 0 N 1017,2 10
16.10.2018 02:00:00 10,3 9,0 2 1 - - - 1016,7 10
16.10.2018 01:00:00 11,3 9,3 4 2 4 2 N 1016,5 17
16.10.2018 00:00:00 10,9 9,2 4 2 4 2 N 1016,0 19
15.10.2018 23:00:00 12,1 9,4 4 2 - - N 1015,8 15
15.10.2018 22:00:00 12,8 9,3 4 2 7 4 N 1015,5 20
15.10.2018 21:00:00 15,1 9,9 4 2 7 4 N 1015,0 20
15.10.2018 20:00:00 15,8 9,7 4 2 - - N 1014,7 20
15.10.2018 19:00:00 18,5 9,7 4 2 14 8 N 1014,2 20
15.10.2018 18:00:00 22,5 9,0 7 4 18 10 SW 1013,5 20
15.10.2018 17:00:00 23,7 9,9 7 4 - - N 1012,8 20
15.10.2018 16:00:00 24,2 10,4 14 8 22 12 SSW 1012,7 20
15.10.2018 15:00:00 24,5 10,9 11 6 25 14 SSW 1012,6 20
15.10.2018 14:00:00 23,7 10,5 14 8 - - SSW 1012,7 20
15.10.2018 13:00:00 22,2 10,2 14 8 25 14 SSW 1012,8 20
15.10.2018 12:00:00 22,3 9,8 14 8 25 14 SSW 1012,7 20
15.10.2018 11:00:00 21,2 9,4 14 8 - - S 1012,2 20
15.10.2018 10:00:00 20,0 10,1 7 4 14 8 S 1012,0 20
15.10.2018 09:00:00 17,0 9,2 4 2 7 4 N 1011,3 20
15.10.2018 08:00:00 15,5 8,0 4 2 - - N 1011,0 20
15.10.2018 07:00:00 16,8 7,7 4 2 11 6 N 1010,5 20
15.10.2018 06:00:00 16,7 8,2 4 2 11 6 N 1010,1 20
15.10.2018 05:00:00 17,6 8,0 4 2 - - N 1009,7 20
15.10.2018 04:00:00 16,3 7,9 4 2 11 6 N 1009,8 20
15.10.2018 03:00:00 15,3 7,3 4 2 11 6 N 1009,8 20
15.10.2018 02:00:00 14,8 7,6 4 2 - - N 1009,7 20
15.10.2018 01:00:00 14,4 7,8 4 2 4 2 N 1009,7 20
15.10.2018 00:00:00 13,8 8,0 4 2 7 4 N 1009,3 20
14.10.2018 23:00:00 14,8 8,0 4 2 - - N 1009,2 20
14.10.2018 22:00:00 16,9 6,8 4 2 4 2 N 1008,8 20
14.10.2018 21:00:00 19,2 6,5 4 2 11 6 N 1008,5 20
14.10.2018 20:00:00 19,2 6,7 4 2 - - N 1008,3 20
14.10.2018 19:00:00 20,5 9,2 4 2 11 6 N 1008,1 20
14.10.2018 18:00:00 23,2 8,3 4 2 22 12 N 1007,6 20
14.10.2018 17:00:00 24,7 7,4 11 6 - - S 1007,5 20
14.10.2018 16:00:00 25,7 7,9 18 10 32 18 SSW 1007,3 20
14.10.2018 15:00:00 25,6 8,2 18 10 36 19 S 1007,7 20
14.10.2018 14:00:00 25,2 7,8 18 10 - - S 1008,0 20
14.10.2018 13:00:00 24,1 9,0 22 12 36 19 SSW 1008,7 20
14.10.2018 12:00:00 23,0 9,8 14 8 29 16 S 1009,1 20
14.10.2018 11:00:00 21,0 11,7 14 8 - - S 1009,5 20
14.10.2018 10:00:00 19,0 11,6 7 4 18 10 S 1009,7 20
14.10.2018 09:00:00 16,3 11,1 4 2 11 6 N 1010,0 20
14.10.2018 08:00:00 15,5 11,0 4 2 - - N 1009,8 20
14.10.2018 07:00:00 14,1 10,6 4 2 4 2 N 1010,1 20
14.10.2018 06:00:00 15,1 10,8 4 2 7 4 N 1010,5 20
14.10.2018 05:00:00 15,1 10,8 4 2 - - N 1010,7 20
14.10.2018 04:00:00 15,6 10,9 4 2 7 4 N 1011,3 20
14.10.2018 03:00:00 16,0 10,9 4 2 7 4 N 1012,2 20
14.10.2018 02:00:00 16,3 10,9 4 2 - - N 1012,7 20
14.10.2018 01:00:00 16,5 10,9 4 2 7 4 N 1013,6 20
14.10.2018 00:00:00 17,3 10,8 4 2 7 4 - 1013,8 6
13.10.2018 23:00:00 18,4 10,9 4 2 - - N 1014,2 20
13.10.2018 22:00:00 19,7 11,0 4 2 11 6 N 1014,1 20
13.10.2018 21:00:00 20,7 11,2 4 2 14 8 N 1014,1 20
13.10.2018 20:00:00 21,2 11,4 4 2 - - N 1014,5 20
13.10.2018 19:00:00 22,4 12,0 4 2 18 10 N 1014,5 20
13.10.2018 18:00:00 25,0 13,4 4 2 22 12 N 1014,6 20
13.10.2018 17:00:00 26,0 12,9 11 6 - - S 1015,1 20
13.10.2018 16:00:00 26,8 13,2 11 6 22 12 S 1015,8 20
13.10.2018 15:00:00 26,4 13,2 11 6 25 14 S 1016,5 20
13.10.2018 14:00:00 26,2 14,1 11 6 - - S 1017,2 20
13.10.2018 13:00:00 25,3 14,2 11 6 25 14 S 1018,2 20
13.10.2018 12:00:00 24,3 14,0 11 6 14 8 S 1018,7 20
13.10.2018 11:00:00 22,2 14,1 7 4 - - S 1019,2 20
13.10.2018 10:00:00 20,2 13,6 7 4 11 6 SSE 1019,5 20
13.10.2018 09:00:00 17,5 13,3 4 2 7 4 N 1019,5 20
13.10.2018 08:00:00 16,0 12,9 4 2 - - N 1019,3 20
13.10.2018 07:00:00 16,2 13,0 4 2 14 8 N 1019,6 20
13.10.2018 06:00:00 17,8 13,3 7 4 14 8 S 1019,7 20
13.10.2018 05:00:00 16,7 13,0 4 2 - - N 1020,2 20
13.10.2018 04:00:00 17,0 12,9 4 2 11 6 N 1020,2 20
13.10.2018 03:00:00 18,2 13,0 4 2 14 8 N 1019,8 20
13.10.2018 02:00:00 18,5 13,2 7 4 - - S 1019,7 20
13.10.2018 01:00:00 18,8 13,5 4 2 14 8 N 1019,7 20
13.10.2018 00:00:00 18,8 13,9 7 4 11 6 S 1020,1 20
12.10.2018 23:00:00 18,6 14,0 4 2 - - - 1020,2 3,3
12.10.2018 22:00:00 19,0 14,3 4 2 11 6 N 1020,2 20
12.10.2018 21:00:00 19,3 14,5 4 2 11 6 N 1019,8 20
12.10.2018 20:00:00 19,7 14,4 4 2 - - N 1019,6 17
12.10.2018 19:00:00 21,7 14,6 7 4 18 10 S 1019,2 20
12.10.2018 18:00:00 22,6 15,0 7 4 36 19 SSW 1018,8 20
12.10.2018 17:00:00 23,8 14,6 14 8 - - S 1018,7 20
12.10.2018 16:00:00 23,9 14,3 14 8 29 16 SSW 1019,0 20
12.10.2018 15:00:00 24,1 14,4 18 10 36 19 SSW 1018,7 20
12.10.2018 14:00:00 23,5 14,6 18 10 - - SSW 1019,0 20
12.10.2018 13:00:00 22,1 15,1 14 8 29 16 SSW 1019,1 20
12.10.2018 12:00:00 21,3 14,8 14 8 29 16 SSW 1019,0 20
12.10.2018 11:00:00 19,7 14,4 11 6 - - SSW 1019,2 20
12.10.2018 10:00:00 16,7 13,7 11 6 18 10 S 1019,2 20
12.10.2018 09:00:00 15,2 13,1 4 2 14 8 N 1018,7 20
12.10.2018 08:00:00 14,0 12,7 7 4 - - S 1017,8 20
12.10.2018 07:00:00 14,6 13,1 7 4 14 8 S 1017,0 12
12.10.2018 06:00:00 15,1 13,5 9 5 18 10 SSW 1016,2 10
12.10.2018 05:00:00 16,0 13,9 11 6 - - SSW 1015,6 20
12.10.2018 04:00:00 16,1 14,1 7 4 22 12 S 1015,0 20
12.10.2018 03:00:00 16,1 14,0 11 6 32 18 SSW 1014,7 20
12.10.2018 02:00:00 17,7 13,4 18 10 - - SW 1014,3 20
12.10.2018 01:00:00 18,4 11,6 11 6 18 10 S 1013,8 20
12.10.2018 00:00:00 17,5 11,3 4 2 14 8 N 1012,7 20
11.10.2018 23:00:00 17,7 11,4 7 4 - - N 1012,5 20
11.10.2018 22:00:00 17,7 11,6 4 2 11 6 N 1012,5 20
11.10.2018 21:00:00 18,5 11,9 4 2 11 6 N 1012,7 20
11.10.2018 20:00:00 19,0 12,1 7 4 - - SSE 1012,6 20
11.10.2018 19:00:00 21,4 12,5 4 2 18 10 N 1011,7 20
11.10.2018 18:00:00 23,2 12,6 7 4 25 14 S 1011,1 20
11.10.2018 17:00:00 24,6 12,1 9 5 - - SSE 1010,6 10
11.10.2018 16:00:00 24,8 12,1 11 6 22 12 S 1010,8 20
11.10.2018 15:00:00 23,7 12,6 7 4 22 12 SE 1011,1 20
11.10.2018 14:00:00 22,7 12,0 11 6 - - SE 1011,2 20
11.10.2018 13:00:00 21,4 12,8 7 4 18 10 SE 1011,7 20
11.10.2018 12:00:00 18,9 13,1 4 2 11 6 N 1012,2 20
11.10.2018 11:00:00 16,0 12,6 4 2 - - N 1012,6 15
11.10.2018 10:00:00 15,2 12,4 4 2 7 4 N 1012,5 10
11.10.2018 09:00:00 13,3 11,7 4 2 7 4 - 1012,2 10
11.10.2018 08:00:00 11,2 10,5 4 2 - - N 1011,8 8
11.10.2018 07:00:00 11,1 10,3 4 2 7 4 N 1011,5 8

tt = Température de l'air
td = dewpoint
ff = Vitesse du vent
fx = gusts
dd = Direction du vent
ppp = reduced air pressure
vv = visibility

stations d'obs. à proximité